Date String (YYYY-MM-DD hh:mm:ss) UTC,Instrument flags,absolute air pressure of the measurement (hPa),sample flow rate (lpm),inlet stack bypass flow (lpm),air temperature of the measurement (°C),ambient temperature measured by the external sensor (°C),aerosol sample conditioner tube jacket temperature (°C),OPC LED temperature (°C),internal box temperature (°C),relative humidity of the measurement (%),span deviation,mass concentration of particles derived from Lorenz-Mie calculation of OPC scattering (μg/m³),mass concentration of particles derived from Lorenz-Mie calculation of OPC scattering (μg/m³),mass concentration of particles derived from Lorenz-Mie calculation of OPC scattering (μg/m³)
DateTimeUTC,F1_M11,P_M11,Q1_M11,Q2_M11,T1_M11,T2_M11,T3_M11,T4_M11,T5_M11,U1_M11,ZSPAN_M11,X2_M11,X0_M11,X1_M11
2024-04-17 17:00:00,SystemResetWarning,0825.1,5.00,000.00,025.3,024.6,000.0,033.7,027.2,013.6,0000.0,0002.50,0004.89,0001.51
2024-04-17 17:01:00,SystemResetWarning,0825.1,4.99,000.00,025.4,024.7,000.0,033.7,027.3,013.7,0000.0,0002.45,0004.79,0001.49
2024-04-17 17:02:00,SystemResetWarning,0825.1,4.99,000.00,025.5,024.8,000.0,033.7,027.4,013.5,0000.0,0002.43,0005.35,0001.48
2024-04-17 17:03:00,SystemResetWarning,0825.1,5.00,000.00,025.5,024.9,000.0,033.8,027.4,013.5,0000.0,0002.39,0005.37,0001.47
2024-04-17 17:04:00,SystemResetWarning,0825.1,5.01,000.00,025.6,025.0,000.0,033.8,027.5,013.5,0000.0,0002.39,0005.42,0001.46
2024-04-17 17:05:00,SystemResetWarning,0825.1,5.01,000.00,025.6,025.0,000.0,033.8,027.6,013.4,0000.0,0002.33,0005.44,0001.45
2024-04-17 17:06:00,SystemResetWarning,0825.1,5.00,000.00,025.7,025.1,000.0,033.9,027.6,013.4,0000.0,0002.31,0005.43,0001.44
2024-04-17 17:07:00,SystemResetWarning,0825.1,4.99,000.00,025.7,025.2,000.0,033.9,027.7,013.4,0000.0,0002.33,0005.47,0001.43
2024-04-17 17:08:00,SystemResetWarning,0825.1,4.99,000.00,025.8,025.2,000.0,033.9,027.7,013.5,0000.0,0002.37,0006.91,0001.43
2024-04-17 17:09:00,SystemResetWarning,0825.1,5.00,000.00,025.8,025.3,000.0,034.0,027.8,013.3,0000.0,0002.38,0007.29,0001.43
2024-04-17 17:10:00,SystemResetWarning,0825.1,5.00,000.00,025.9,025.4,000.0,034.0,027.8,013.4,0000.0,0002.41,0007.37,0001.44
2024-04-17 17:11:00,SystemResetWarning,0825.1,5.00,000.00,025.9,025.4,000.0,034.0,027.8,013.4,0000.0,0002.39,0007.18,0001.44
2024-04-17 17:12:00,SystemResetWarning,0825.1,5.01,000.00,026.0,025.4,000.0,034.1,027.9,013.3,0000.0,0002.38,0007.09,0001.43
2024-04-17 17:13:00,SystemResetWarning,0825.0,4.98,000.00,025.9,024.2,000.0,034.1,027.1,013.4,0000.0,0002.37,0006.73,0001.44
2024-04-17 17:14:00,SystemResetWarning,0824.9,5.02,000.00,025.4,022.0,000.0,034.2,025.8,013.7,0000.0,0002.39,0006.71,0001.45
2024-04-17 17:15:00,SystemResetWarning,0824.9,5.02,000.00,025.0,021.7,000.0,034.1,025.5,013.9,0000.0,0002.36,0006.60,0001.45
2024-04-17 17:16:00,SystemResetWarning,0824.9,5.00,000.00,024.9,022.1,000.0,033.9,025.7,014.0,0000.0,0002.43,0006.86,0001.46
2024-04-17 17:17:00,SystemResetWarning,0825.0,5.00,000.00,024.8,022.5,000.0,033.8,026.1,014.1,0000.0,0002.42,0006.83,0001.45
2024-04-17 17:18:00,SystemResetWarning,0825.0,4.99,000.00,024.9,022.9,000.0,033.7,026.4,013.9,0000.0,0002.38,0006.93,0001.45
2024-04-17 17:19:00,SystemResetWarning,0825.0,5.01,000.00,024.9,023.2,000.0,033.6,026.6,013.9,0000.0,0002.38,0007.27,0001.46
2024-04-17 17:20:00,SystemResetWarning,0824.9,5.00,000.00,025.0,023.5,000.0,033.6,026.7,014.1,0000.0,0002.43,0007.55,0001.47
2024-04-17 17:21:00,SystemResetWarning,0824.9,4.99,000.00,025.0,023.8,000.0,033.6,026.8,013.9,0000.0,0002.45,0007.75,0001.47
2024-04-17 17:22:00,SystemResetWarning,0824.9,4.99,000.00,025.1,024.0,000.0,033.6,026.9,014.1,0000.0,0002.45,0007.77,0001.47
2024-04-17 17:23:00,SystemResetWarning,0824.9,5.00,000.00,025.1,024.2,000.0,033.6,027.0,014.1,0000.0,0002.47,0007.73,0001.48
2024-04-17 17:24:00,SystemResetWarning,0824.8,5.00,000.00,025.2,024.3,000.0,033.6,027.1,013.7,0000.0,0002.50,0007.66,0001.49
2024-04-17 17:25:00,SystemResetWarning,0824.8,5.01,000.00,025.3,024.5,000.0,033.6,027.2,013.6,0000.0,0002.54,0007.71,0001.49
2024-04-17 17:26:00,SystemResetWarning,0824.8,5.01,000.00,025.3,024.6,000.0,033.6,027.2,013.6,0000.0,0002.60,0007.91,0001.48
2024-04-17 17:27:00,SystemResetWarning,0824.8,5.01,000.00,025.4,024.7,000.0,033.6,027.3,013.5,0000.0,0002.60,0007.89,0001.48
2024-04-17 17:28:00,SystemResetWarning,0824.8,5.00,000.00,025.4,024.8,000.0,033.7,027.3,013.4,0000.0,0002.64,0007.91,0001.50
2024-04-17 17:29:00,SystemResetWarning,0824.8,4.99,000.00,025.5,024.9,000.0,033.7,027.4,013.4,0000.0,0002.73,0008.02,0001.52
2024-04-17 17:30:00,SystemResetWarning,0824.8,5.00,000.00,025.5,025.0,000.0,033.7,027.5,013.3,0000.0,0002.73,0006.94,0001.53
2024-04-17 17:31:00,SystemResetWarning,0824.7,4.99,000.00,025.6,025.0,000.0,033.7,027.5,013.4,0000.0,0002.70,0006.06,0001.55
2024-04-17 17:32:00,SystemResetWarning,0824.7,4.99,000.00,025.6,025.1,000.0,033.8,027.6,013.3,0000.0,0002.74,0006.73,0001.57
2024-04-17 17:33:00,SystemResetWarning,0824.8,5.02,000.00,025.7,025.2,000.0,033.8,027.6,013.3,0000.0,0002.76,0006.78,0001.57
2024-04-17 17:34:00,SystemResetWarning,0824.7,5.00,000.00,025.7,025.2,000.0,033.9,027.7,013.3,0000.0,0002.81,0007.04,0001.58
2024-04-17 17:35:00,SystemResetWarning,0824.7,5.00,000.00,025.8,025.3,000.0,033.9,027.7,013.3,0000.0,0002.82,0007.27,0001.60
2024-04-17 17:36:00,SystemResetWarning,0824.7,5.00,000.00,025.8,025.3,000.0,033.9,027.8,013.3,0000.0,0002.80,0008.04,0001.62
2024-04-17 17:37:00,SystemResetWarning,0824.7,5.00,000.00,025.9,025.4,000.0,034.0,027.8,013.8,0000.0,0002.77,0008.18,0001.62
2024-04-17 17:38:00,SystemResetWarning,0824.7,4.98,000.00,025.8,024.2,000.0,034.0,027.1,013.9,0000.0,0002.86,0008.30,0001.63
2024-04-17 17:39:00,SystemResetWarning,0824.6,5.01,000.00,025.3,021.9,000.0,034.1,025.8,014.4,0000.0,0002.87,0008.49,0001.63
2024-04-17 17:40:00,SystemResetWarning,0824.6,5.01,000.00,024.9,021.5,000.0,034.0,025.4,014.5,0000.0,0002.87,0008.67,0001.63
2024-04-17 17:41:00,SystemResetWarning,0824.7,5.00,000.00,024.8,021.9,000.0,033.8,025.5,014.8,0000.0,0002.87,0008.71,0001.63
2024-04-17 17:42:00,SystemResetWarning,0824.7,5.00,000.00,024.7,022.3,000.0,033.7,025.9,014.9,0000.0,0002.88,0008.76,0001.62
2024-04-17 17:43:00,SystemResetWarning,0824.7,4.99,000.00,024.8,022.7,000.0,033.6,026.3,014.6,0000.0,0002.86,0008.27,0001.60
2024-04-17 17:44:00,SystemResetWarning,0824.7,4.99,000.00,024.8,023.1,000.0,033.5,026.4,014.5,0000.0,0002.86,0008.24,0001.60
2024-04-17 17:45:00,SystemResetWarning,0824.7,5.00,000.00,024.9,023.4,000.0,033.5,026.6,014.5,0000.0,0002.85,0008.20,0001.59
2024-04-17 17:46:00,SystemResetWarning,0824.7,5.01,000.00,024.9,023.6,000.0,033.5,026.7,014.4,0000.0,0002.87,0008.17,0001.58
2024-04-17 17:47:00,SystemResetWarning,0824.7,5.01,000.00,025.0,023.9,000.0,033.5,026.8,014.2,0000.0,0002.87,0007.22,0001.58
2024-04-17 17:48:00,SystemResetWarning,0824.7,4.99,000.00,025.0,024.0,000.0,033.5,026.9,014.1,0000.0,0002.89,0006.73,0001.59
2024-04-17 17:49:00,SystemResetWarning,0824.7,5.00,000.00,025.1,024.2,000.0,033.5,027.0,014.1,0000.0,0002.81,0006.30,0001.60
2024-04-17 17:50:00,SystemResetWarning,0824.7,5.00,000.00,025.1,024.4,000.0,033.5,027.0,014.4,0000.0,0002.74,0005.80,0001.61
2024-04-17 17:51:00,SystemResetWarning,0824.7,5.00,000.00,025.2,024.5,000.0,033.5,027.1,014.1,0000.0,0002.67,0005.76,0001.59
2024-04-17 17:52:00,SystemResetWarning,0824.7,4.99,000.00,025.3,024.6,000.0,033.5,027.2,014.1,0000.0,0002.63,0006.07,0001.58
2024-04-17 17:53:00,SystemResetWarning,0824.7,4.99,000.00,025.3,024.6,000.0,033.5,027.2,014.1,0000.0,0002.68,0006.27,0001.58
2024-04-17 17:54:00,SystemResetWarning,0824.7,5.01,000.00,025.4,024.7,000.0,033.6,027.3,014.3,0000.0,0002.74,0006.38,0001.59
2024-04-17 17:55:00,SystemResetWarning,0824.6,5.01,000.00,025.4,024.8,000.0,033.6,027.3,014.1,0000.0,0002.74,0007.38,0001.60
2024-04-17 17:56:00,SystemResetWarning,0824.5,5.01,000.00,025.5,024.9,000.0,033.6,027.4,013.8,0000.0,0002.74,0007.74,0001.62
2024-04-17 17:57:00,SystemResetWarning,0824.4,5.00,000.00,025.5,024.9,000.0,033.7,027.4,013.6,0000.0,0002.71,0007.67,0001.61
2024-04-17 17:58:00,SystemResetWarning,0824.4,4.99,000.00,025.5,025.0,000.0,033.7,027.5,013.6,0000.0,0002.75,0007.79,0001.62
2024-04-17 17:59:00,SystemResetWarning,0824.4,4.99,000.00,025.6,025.0,000.0,033.7,027.5,013.5,0000.0,0002.83,0007.96,0001.61
